GFSMW_sfc_wetblb_132.txt.gz
Wetbulb
65.49 67.97 69.85 70.79 70.49 70.13 69.65 70.05 69.95 70.82 70.43 69.68 70.18 70.46 70.14 71.00 71.45 71.70 72.56 72.78 72.72 72.80 73.07 72.98 72.69 72.32 71.90 71.71 71.68 71.55 70.67 70.50 70.56 68.75 68.39 68.85 69.83 69.52 69.37 70.21 70.03 70.94 73.42
65.41 66.58 67.74 69.61 69.91 69.85 69.71 69.38 69.68 70.23 70.23 70.63 70.89 70.95 71.04 71.55 72.49 73.12 72.20 72.56 72.98 73.17 72.58 72.37 71.90 72.30 71.61 71.55 70.75 70.97 69.82 69.83 69.78 68.37 66.05 64.32 66.54 67.52 68.82 69.25 69.24 69.59 70.53
64.64 65.26 66.30 66.66 68.40 69.01 69.55 69.72 69.91 70.10 70.45 71.21 71.15 71.42 71.24 71.26 70.59 70.81 71.43 71.94 72.59 72.86 72.64 72.99 72.17 72.37 71.89 71.13 71.07 70.60 70.04 68.49 68.45 69.48 67.67 63.32 62.47 64.40 67.38 68.17 68.61 69.58 68.90
66.13 66.73 66.52 66.78 68.98 68.64 69.84 71.13 70.83 70.53 71.28 71.02 71.24 70.53 66.85 64.27 68.42 71.21 71.78 71.97 72.47 73.06 73.31 72.73 72.62 72.07 71.96 71.33 71.24 71.15 70.61 69.75 68.31 68.20 68.87 67.68 66.78 65.03 63.74 66.62 68.02 69.02 68.48
65.70 66.37 66.84 68.01 68.53 70.43 70.17 70.40 70.88 71.25 72.15 71.07 70.95 70.40 67.10 66.00 66.86 70.90 70.91 71.22 71.93 72.20 73.43 72.91 72.44 71.97 71.66 71.70 71.54 71.22 70.98 70.54 69.62 68.65 67.70 68.51 67.45 65.99 65.14 63.91 65.60 67.50 69.63
64.07 65.11 65.09 66.02 68.34 69.93 70.68 70.88 68.68 67.37 71.18 71.48 70.88 70.23 69.62 69.86 69.58 70.04 69.89 70.54 71.22 71.41 72.55 73.08 72.72 72.64 72.16 71.65 71.40 71.40 70.94 70.66 70.30 69.88 69.03 68.01 67.17 65.83 65.58 64.95 66.31 65.55 68.47
61.54 61.72 62.26 63.06 63.14 63.40 63.89 63.56 62.62 62.35 63.64 64.60 65.71 67.32 68.69 69.12 69.78 70.18 70.16 69.87 70.45 70.25 70.86 72.42 72.50 72.37 72.35 72.01 71.68 71.23 70.95 70.60 70.13 69.69 69.07 68.86 68.86 68.84 68.33 67.39 66.96 65.62 67.74
60.29 61.04 61.51 61.69 62.05 62.14 62.01 61.73 61.17 61.22 62.06 63.04 63.43 63.94 64.47 65.70 67.25 69.31 69.80 70.18 70.48 71.02 71.84 71.46 72.26 72.36 72.58 72.32 71.79 71.08 71.20 71.17 70.67 70.56 70.12 69.61 69.37 69.16 68.05 67.73 66.76 64.94 65.92
59.39 60.49 60.87 61.05 61.32 61.19 60.89 60.95 60.52 60.37 60.99 61.51 62.11 62.38 63.04 63.17 63.86 64.72 65.53 66.36 69.27 70.53 71.37 71.59 71.47 71.78 72.35 72.58 72.37 70.91 70.39 70.84 70.53 70.56 70.57 69.59 70.39 70.01 69.09 68.97 68.21 66.76 64.35
58.39 59.35 60.33 60.65 60.59 60.52 60.37 60.47 60.16 59.52 59.96 60.23 60.88 62.13 61.85 62.75 63.39 63.60 63.88 65.10 65.96 67.57 69.37 70.49 71.37 71.44 71.60 72.00 72.15 71.67 71.36 70.55 70.25 70.45 70.02 70.22 69.96 70.97 69.84 69.67 69.75 69.63 67.63
57.60 59.04 59.84 60.07 59.96 59.95 59.89 59.04 59.14 58.92 59.31 60.10 60.39 60.66 61.11 61.99 62.81 62.40 63.22 64.34 65.39 65.80 66.14 67.57 69.57 70.70 71.19 71.41 70.79 71.18 71.37 70.31 70.01 69.59 69.55 68.67 69.64 69.51 69.92 69.35 69.51 69.03 68.78
57.98 59.10 59.16 58.91 58.38 58.57 58.85 58.12 58.26 58.46 58.97 59.59 60.13 60.34 61.10 61.60 61.72 62.08 62.97 63.90 64.14 65.04 65.71 66.20 67.37 69.33 70.29 70.85 70.57 70.26 70.45 70.54 69.28 67.75 63.47 62.57 65.51 65.34 68.87 69.78 69.41 69.19 69.63
57.84 58.29 57.91 57.37 57.59 57.51 57.36 57.59 57.24 57.71 58.25 58.69 59.22 59.62 60.00 60.53 60.81 61.59 62.64 63.50 63.67 63.77 64.49 65.02 65.64 67.10 69.24 70.05 70.32 70.19 69.75 67.59 67.47 65.27 64.94 63.44 62.80 62.38 64.67 69.19 69.64 69.82 70.09
58.07 57.41 56.73 56.57 56.64 57.36 57.06 57.05 57.37 58.00 57.37 57.88 58.34 58.64 59.46 60.13 60.50 61.36 61.90 62.36 63.05 62.78 62.75 63.06 63.93 65.87 67.36 69.08 69.11 68.64 68.73 67.52 67.56 67.13 65.91 64.65 63.81 63.35 63.84 65.55 69.36 69.99 69.30
57.12 56.62 56.28 56.12 56.25 56.24 56.86 57.15 57.27 57.52 57.18 57.24 57.66 58.30 59.75 60.61 60.75 60.55 60.98 61.87 62.06 62.16 62.33 62.29 62.23 63.79 66.01 66.98 68.21 67.74 66.81 66.21 66.16 66.42 65.27 64.31 63.97 64.82 65.42 67.12 68.88 69.57 69.28
57.06 57.05 56.96 56.66 56.30 56.77 56.99 56.86 56.50 56.22 56.78 56.45 56.22 58.48 59.76 59.85 59.96 60.33 61.06 61.43 61.99 62.26 62.40 61.90 61.87 61.51 62.49 62.94 63.62 66.56 66.88 65.34 64.94 64.61 65.69 66.40 66.48 65.82 64.25 65.78 66.63 69.89 69.54
57.04 56.86 56.91 56.70 56.59 56.57 56.67 55.51 55.49 56.54 56.31 55.08 55.33 56.51 57.42 58.39 59.55 60.79 61.37 61.21 61.45 60.58 60.52 61.73 62.01 61.58 63.41 62.08 61.54 63.87 67.05 66.70 65.38 64.50 63.95 64.32 65.16 65.05 65.45 63.74 63.73 64.27 64.86
56.88 57.06 56.52 56.64 56.88 57.28 56.31 56.05 56.24 55.61 54.75 54.41 54.36 55.47 57.27 58.02 59.73 60.76 61.05 61.33 59.98 59.79 60.73 61.83 62.52 63.04 65.11 61.87 59.94 61.94 66.00 66.00 65.80 65.00 64.32 64.30 65.11 64.94 65.47 66.05 65.27 65.83 67.75
57.28 57.61 57.78 57.69 57.26 56.37 56.28 55.38 54.80 53.86 53.53 53.78 54.10 56.53 58.23 58.47 59.75 60.34 61.01 60.67 59.67 58.59 62.05 62.31 63.32 64.27 64.66 59.63 58.70 60.59 64.66 64.86 64.62 64.23 64.73 64.21 64.65 62.42 60.80 67.05 65.71 66.54 65.73
57.78 57.73 57.73 57.33 56.27 56.16 55.77 54.13 53.08 52.50 52.46 53.75 55.27 57.55 59.11 59.95 59.67 60.55 61.46 60.86 60.44 57.88 60.86 62.50 62.51 61.28 63.30 57.44 55.10 58.26 65.37 64.42 64.31 63.82 64.10 61.33 64.15 58.89 57.39 66.27 65.98 62.97 64.78
57.97 58.26 57.50 56.43 55.88 56.14 54.80 53.39 53.53 53.08 54.25 55.36 57.14 59.25 59.94 59.80 60.68 60.92 60.86 61.07 60.68 58.32 59.20 57.82 59.11 60.17 59.93 60.59 54.92 53.63 64.49 64.29 63.95 64.11 64.65 65.15 57.80 55.28 53.83 57.15 65.39 64.19 64.06
58.15 58.15 56.98 56.05 56.12 56.10 55.18 54.65 54.17 55.52 56.30 57.04 57.65 58.36 58.35 59.50 60.30 58.46 58.53 58.71 59.70 57.20 56.29 56.69 56.37 57.53 58.31 54.98 54.72 55.82 57.46 61.24 64.33 63.85 65.10 64.21 55.10 52.92 52.74 53.63 55.64 55.10 58.64
58.25 58.44 56.91 56.26 56.21 56.26 55.87 55.30 56.17 56.72 57.44 57.12 57.30 58.00 57.50 58.32 59.05 57.76 56.73 56.87 56.89 57.39 55.95 54.93 54.87 55.61 57.09 56.53 51.76 53.07 54.01 58.36 61.70 60.66 54.13 51.74 49.66 49.66 53.29 52.38 53.11 52.54 59.47
58.16 57.94 56.48 55.79 55.55 55.71 56.62 56.25 56.90 57.38 57.50 56.46 57.00 57.73 57.09 57.10 57.77 57.31 56.57 56.17 54.35 54.58 56.11 54.29 53.46 55.91 56.89 55.26 51.72 50.52 62.36 59.07 61.34 60.29 60.80 57.62 57.27 57.07 59.07 60.68 61.74 63.49 63.69
58.00 57.29 56.17 55.48 55.47 56.30 55.47 56.57 57.48 57.66 56.60 56.10 56.76 57.37 57.22 56.57 57.12 57.93 56.40 55.94 52.84 49.24 51.30 53.60 53.33 53.34 55.43 52.75 44.52 42.70 50.78 54.68 53.81 60.49 62.22 61.79 62.43 61.08 61.32 61.60 61.81 62.12 62.30
56.60 55.44 55.22 55.30 55.74 56.12 55.84 56.36 58.34 57.18 55.83 55.94 56.54 55.39 54.94 54.68 55.87 58.73 58.54 50.22 47.21 44.12 42.19 42.00 46.08 52.15 46.38 43.43 41.62 40.73 42.39 44.02 47.97 60.22 60.67 60.74 60.63 59.48 60.10 59.75 59.17 59.52 59.16

GFSMW_sfc_wetblb_138.txt.gz
Wetbulb
73.01 74.35 74.97 75.63 75.94 76.74 77.10 77.72 77.55 78.39 77.83 76.62 75.82 75.51 75.10 75.84 76.00 76.13 76.94 76.77 76.66 76.84 77.26 76.49 76.24 77.21 76.47 75.99 76.73 76.23 75.29 74.19 75.36 76.93 73.28 73.18 74.59 74.79 74.42 73.83 73.62 73.52 74.29
72.44 73.34 74.67 75.35 75.75 76.37 77.16 77.68 77.92 78.50 78.16 77.13 76.82 76.58 76.49 76.59 76.78 77.13 77.23 77.62 77.35 77.04 77.50 77.31 77.19 78.35 76.43 77.96 78.04 77.64 76.91 77.21 75.84 72.76 75.28 69.11 70.74 72.56 73.91 74.34 73.40 73.50 73.81
71.04 72.54 73.75 75.02 75.73 76.08 77.00 77.65 78.29 78.48 78.55 78.21 77.19 77.02 76.97 76.71 76.18 76.47 76.50 77.08 77.73 77.72 77.78 77.82 77.81 76.63 76.89 76.58 76.24 77.02 76.36 73.30 74.37 76.03 72.81 68.70 66.92 69.28 71.96 73.02 73.23 73.31 72.92
71.16 72.85 73.35 74.20 75.28 75.72 76.92 77.85 78.28 78.49 78.55 78.98 77.58 77.46 75.78 75.00 75.90 76.11 76.87 76.87 77.32 77.37 77.42 77.88 78.19 78.02 76.30 75.96 76.79 77.61 76.66 76.66 72.21 75.97 74.47 74.10 73.20 68.78 66.94 70.76 73.13 74.40 74.51
70.87 72.17 73.19 74.09 75.17 75.60 76.00 77.23 77.99 78.42 78.52 78.31 78.32 77.07 76.80 76.13 75.92 76.09 77.00 77.41 78.29 77.78 77.86 78.20 77.97 77.69 77.54 77.20 76.94 77.52 77.82 77.04 74.49 73.38 74.12 75.15 75.04 74.61 71.32 67.35 69.03 72.92 74.21
71.27 72.74 73.99 74.70 74.86 75.37 75.74 76.32 77.53 78.36 79.07 78.76 78.45 76.79 76.19 75.92 75.31 75.10 73.72 73.40 73.81 74.78 76.80 77.10 77.42 77.75 77.48 77.11 76.47 77.56 77.49 77.26 76.00 75.73 75.59 72.08 72.05 71.25 71.08 69.54 70.19 69.56 71.74
71.32 72.28 72.98 73.38 74.59 75.42 76.27 76.65 77.06 76.06 76.42 75.96 74.62 73.11 71.96 72.23 71.47 71.11 69.54 70.33 68.67 68.85 72.33 73.64 74.96 75.19 77.24 77.25 77.65 77.43 77.16 76.63 76.23 75.13 74.13 74.85 73.74 73.02 72.11 71.33 70.12 69.50 71.41
71.08 71.88 72.40 73.12 74.28 74.79 74.48 73.45 73.94 73.11 73.14 72.17 71.02 72.18 71.09 69.69 69.35 70.01 69.26 69.00 68.72 69.25 71.26 71.46 71.86 72.17 72.83 73.94 75.56 75.22 76.30 77.32 75.93 75.93 74.11 73.31 74.21 74.31 73.16 71.86 70.75 68.90 69.80
70.42 71.87 72.08 72.96 73.65 73.25 72.70 72.54 72.75 72.06 71.20 70.33 71.33 70.82 70.37 69.97 69.15 70.11 70.14 68.83 70.06 69.36 70.24 70.78 70.68 71.03 71.28 71.77 73.41 72.24 74.74 75.82 76.43 75.57 76.28 76.24 74.57 73.70 74.77 74.72 74.22 70.91 67.66
70.33 71.99 71.72 72.28 72.36 72.06 71.80 71.54 71.59 71.04 69.74 68.84 70.33 69.05 68.98 69.04 69.11 68.87 68.42 68.51 69.27 69.92 69.85 69.96 70.05 70.24 70.41 70.62 71.47 71.34 73.16 74.01 73.98 75.30 75.88 75.76 75.24 75.85 74.72 74.90 75.59 74.77 71.19
69.90 70.01 70.39 71.40 71.25 70.84 70.40 70.09 69.69 69.34 68.60 68.91 67.75 67.57 67.54 67.71 67.43 66.49 67.04 68.06 69.06 69.37 69.30 69.32 69.27 69.10 69.08 69.65 69.99 70.01 70.54 71.60 72.22 74.00 74.71 75.17 76.53 74.77 76.12 74.48 73.87 74.73 74.46
69.17 68.68 69.90 70.22 69.84 69.70 69.83 69.10 68.85 68.17 68.51 68.07 67.08 66.77 67.17 66.93 66.24 66.98 68.06 68.73 68.30 68.75 68.56 68.72 68.43 68.47 68.98 69.56 69.46 68.26 69.15 69.31 70.60 71.74 73.48 74.18 74.71 75.47 75.63 75.08 74.30 74.61 71.66
68.84 68.52 69.29 69.07 69.21 69.36 69.25 68.74 68.45 67.57 68.07 67.40 65.87 66.61 66.36 65.77 67.07 67.87 68.48 68.63 68.93 68.76 68.98 68.62 67.74 67.80 67.69 68.80 69.68 69.57 69.45 69.53 70.31 71.45 72.11 72.90 74.17 74.33 74.13 73.99 73.85 73.63 74.04
68.64 68.40 68.81 69.30 69.52 69.46 69.22 68.54 67.93 68.00 67.83 66.87 65.55 65.71 64.74 64.70 64.31 65.65 67.57 68.31 68.63 68.28 67.67 67.69 66.72 67.21 66.60 66.62 68.02 68.44 68.37 68.63 69.26 71.31 72.02 72.41 73.29 73.90 74.52 73.84 74.00 74.07 72.77
67.90 68.12 68.42 68.89 69.22 68.88 68.91 68.25 67.57 68.05 67.75 65.45 65.40 64.93 64.19 64.38 65.11 66.56 67.60 68.22 68.42 67.92 67.52 66.44 64.85 64.95 63.93 61.13 61.13 61.86 62.43 65.84 67.62 69.68 71.02 71.77 71.90 69.96 72.04 72.98 73.41 72.98 71.39
67.44 68.27 68.54 68.82 68.49 68.60 68.58 67.74 67.57 67.14 66.57 65.00 64.58 64.62 64.27 64.11 66.23 67.13 67.66 68.16 67.91 67.69 66.96 65.12 63.80 63.04 61.28 58.42 59.67 62.51 61.68 62.87 66.02 67.74 69.03 71.23 69.54 69.15 65.05 66.27 66.37 71.28 71.65
67.34 68.14 68.27 68.42 68.82 68.84 68.20 67.40 67.53 66.81 65.45 64.86 64.61 64.16 64.08 64.09 66.44 67.36 67.73 67.24 66.98 67.41 66.10 63.75 63.86 63.16 59.49 57.32 57.78 58.69 61.83 62.05 64.30 66.42 68.96 69.91 70.84 69.34 71.66 65.20 63.56 64.05 62.86
66.01 67.91 68.23 68.38 69.19 69.17 68.42 68.41 67.37 66.09 65.65 64.22 63.77 63.56 64.08 64.41 66.29 67.14 67.04 66.98 67.89 66.75 64.92 63.14 63.85 63.28 58.71 56.32 55.95 56.81 57.03 63.50 64.06 65.83 68.42 70.25 70.42 71.59 71.39 70.96 68.95 69.34 69.74
67.66 68.60 69.19 69.33 69.34 68.27 68.62 68.14 67.02 65.83 64.40 63.73 63.73 63.70 64.43 65.68 66.21 66.14 66.24 65.97 66.24 65.71 63.84 63.50 63.49 59.60 57.10 55.63 54.78 55.07 55.13 61.69 64.16 67.78 69.17 69.54 69.69 65.29 61.46 70.18 69.71 70.05 70.49
68.63 68.85 69.13 68.49 68.13 68.56 68.86 67.70 66.36 65.24 64.27 64.27 63.65 64.72 66.12 65.96 65.43 66.17 65.59 64.13 66.17 65.40 63.07 63.14 61.58 56.97 56.78 55.50 53.26 52.86 54.20 60.86 63.89 68.05 69.06 62.42 66.58 59.77 58.09 69.79 69.86 68.76 70.12
68.75 69.08 67.95 66.50 67.97 69.35 68.74 66.81 66.24 64.83 65.17 65.29 64.74 65.33 66.33 66.21 65.91 66.44 65.97 65.91 65.92 64.39 63.77 63.03 60.58 57.14 58.07 58.37 52.82 50.93 56.85 62.16 65.51 66.33 66.85 68.22 58.16 55.10 53.82 57.17 68.75 66.68 68.97
67.70 67.37 66.26 67.03 68.79 69.33 68.41 66.98 65.89 66.00 65.98 65.30 65.23 65.15 66.02 65.54 64.38 66.10 65.97 66.29 65.16 63.89 64.25 63.89 61.32 58.49 59.08 57.03 54.24 52.11 53.66 56.75 63.53 65.05 65.69 65.56 55.10 53.29 53.29 54.92 56.91 55.64 56.89
66.94 66.84 66.51 67.72 68.80 69.08 68.62 67.09 67.22 66.97 66.06 65.33 66.24 65.25 65.70 66.13 66.05 65.87 65.32 63.43 63.93 62.19 61.67 59.08 61.77 57.45 58.67 59.46 52.82 52.49 55.29 57.54 60.69 60.55 56.65 55.02 52.02 52.56 55.28 53.65 53.47 54.37 64.17
66.59 66.96 67.02 67.19 68.22 68.78 68.34 67.91 67.72 67.46 65.96 65.44 66.03 64.80 65.33 65.08 65.60 64.35 63.92 63.42 61.73 60.30 60.12 59.37 58.76 58.49 57.89 57.96 52.15 53.66 58.79 59.02 61.16 61.33 60.65 58.02 57.27 55.83 57.66 59.60 59.16 59.26 60.91
67.12 67.27 67.17 67.34 68.14 69.06 68.25 68.14 67.44 66.71 64.82 65.27 64.83 63.06 62.57 63.57 63.58 64.07 63.21 63.30 61.99 56.78 59.26 58.36 56.05 56.90 57.03 54.90 47.25 46.72 50.78 55.36 55.76 59.50 61.82 60.63 59.11 56.61 56.95 58.55 59.84 59.32 58.91
66.67 66.79 67.56 67.59 68.18 68.58 68.22 67.71 67.36 66.24 65.20 64.33 62.78 61.96 62.10 62.25 62.00 61.49 62.66 50.44 49.70 46.16 44.19 42.87 45.64 52.96 48.00 42.68 45.84 46.56 45.99 46.37 46.85 61.50 60.16 60.69 61.13 60.15 59.46 59.46 59.57 59.76 58.63

GFSMW_sfc_wetblb_141.txt.gz
Wetbulb
72.88 73.62 74.28 75.14 75.97 76.92 77.57 78.36 78.30 79.61 78.48 76.40 75.67 75.77 75.76 76.75 76.80 77.75 78.34 78.06 77.58 77.82 78.23 76.60 76.50 77.04 76.46 77.09 78.40 78.07 76.19 74.55 74.88 74.84 72.52 74.16 74.50 74.21 74.09 74.39 73.79 74.16 74.85
72.01 73.37 74.44 75.22 75.68 76.55 77.80 78.62 78.90 79.96 78.73 77.84 78.12 78.40 77.45 77.14 78.06 78.25 78.68 79.54 78.29 78.43 78.23 78.37 76.28 74.96 71.84 72.81 75.08 76.18 74.44 75.28 76.11 72.09 71.68 68.30 70.65 73.46 74.38 75.04 74.51 74.26 74.13
70.64 72.51 74.05 75.00 75.81 76.38 77.64 78.33 79.35 79.63 79.78 79.74 78.73 78.40 79.01 77.79 76.43 77.01 77.02 78.32 78.42 78.62 78.82 78.15 77.85 77.82 76.43 73.78 75.19 74.52 72.94 72.97 75.24 75.70 72.23 68.21 66.73 70.04 72.22 74.75 73.50 75.69 73.95
70.69 72.20 73.16 74.73 75.12 75.97 77.49 78.92 79.48 79.75 79.81 80.31 79.46 79.96 76.58 75.54 75.76 76.39 76.65 77.49 78.23 77.45 78.30 78.75 78.66 78.36 76.75 77.29 75.31 76.11 74.16 72.04 69.92 73.72 74.61 74.50 73.03 68.76 67.55 71.49 73.44 75.83 75.46
69.18 69.90 71.60 73.47 74.30 74.67 75.64 77.72 79.26 79.84 80.25 80.20 79.58 77.92 78.04 76.34 75.74 74.97 77.46 79.84 78.72 78.11 77.82 78.76 77.95 78.09 77.75 77.83 77.65 77.24 76.75 75.36 73.43 70.30 70.54 74.26 74.11 74.41 70.00 67.74 69.75 71.98 73.52
68.74 69.80 71.16 72.62 73.03 74.15 74.74 76.12 78.59 79.48 80.06 79.59 79.41 78.74 77.45 76.80 75.16 74.44 72.39 70.33 69.54 69.67 72.97 73.78 75.27 76.97 76.86 76.52 76.39 77.24 76.89 76.39 75.67 74.68 74.37 69.53 70.04 70.88 71.16 69.44 71.28 70.73 72.60
68.55 69.31 70.09 71.11 72.87 73.12 73.98 74.99 77.83 78.90 79.44 79.05 78.40 77.77 75.62 74.05 73.41 72.76 70.62 71.98 68.62 67.63 71.18 74.77 74.39 72.43 74.67 74.89 75.31 75.50 76.23 75.83 75.26 75.60 74.68 74.85 72.03 71.24 72.61 71.67 71.11 69.46 72.77
69.33 69.99 71.04 71.80 72.16 72.67 73.93 75.29 77.92 77.67 76.81 75.47 75.24 74.76 73.05 71.80 71.05 72.06 70.29 69.45 68.77 69.49 73.55 71.82 71.75 71.97 72.83 72.75 74.04 72.12 72.87 74.73 74.78 74.93 75.53 74.53 74.75 75.31 70.85 71.62 71.58 69.56 69.64
69.79 70.73 71.73 71.42 71.95 73.20 75.13 74.89 75.73 75.01 74.68 74.29 73.89 73.23 72.70 71.69 70.58 71.04 70.90 69.13 71.60 69.10 71.06 70.83 70.50 71.10 71.33 71.92 73.19 70.08 72.06 73.18 73.70 74.22 74.78 74.66 74.87 75.20 75.09 72.40 69.94 71.04 68.05
70.29 70.78 71.52 71.27 72.79 73.94 74.61 73.91 74.50 73.93 73.77 73.02 72.30 71.69 71.05 70.52 70.47 70.24 69.28 68.95 69.02 70.11 70.01 70.04 70.25 70.48 71.16 71.43 72.32 70.34 71.15 72.42 71.15 71.71 72.84 73.73 73.68 74.59 74.64 74.61 73.26 71.26 70.01
70.53 71.06 71.75 71.89 72.97 73.70 73.42 72.80 72.98 73.02 72.14 71.59 70.73 70.07 69.79 69.29 69.33 68.60 68.24 68.64 69.73 70.40 70.27 69.90 69.92 70.25 70.42 71.28 71.30 70.96 70.84 70.10 70.41 71.08 71.87 72.17 73.37 73.07 73.67 73.95 74.17 74.25 72.93
70.66 71.32 72.15 72.10 72.26 72.14 72.25 71.63 72.16 71.74 71.38 70.90 69.50 69.16 69.22 69.01 67.94 68.14 68.63 69.36 69.28 69.99 70.18 70.85 71.36 70.14 69.23 69.74 69.67 69.12 69.12 68.56 68.57 69.37 70.14 70.61 71.68 72.73 73.24 73.50 73.51 73.83 74.85
69.44 71.20 71.76 71.42 71.60 71.54 71.51 71.58 71.21 70.83 70.51 69.64 68.50 68.44 68.54 68.42 67.98 67.45 67.56 68.23 68.93 69.31 69.47 70.45 69.59 69.46 69.26 68.44 68.35 68.16 66.89 66.70 67.07 68.25 68.47 69.21 70.13 70.26 71.77 72.51 72.65 73.51 74.13
69.91 70.65 71.06 73.02 72.42 72.65 71.73 71.32 70.80 70.52 69.73 68.62 67.73 67.81 67.58 67.04 66.30 66.80 67.68 68.80 70.21 69.50 69.69 68.95 68.10 69.27 68.28 67.43 67.17 66.24 64.67 63.10 61.50 63.80 66.87 68.04 68.33 69.13 70.80 71.46 72.35 73.08 73.48
69.03 70.20 70.46 71.51 71.70 71.71 71.77 71.41 70.87 70.21 69.38 68.04 67.14 67.15 67.38 66.74 65.90 66.54 68.31 68.68 69.43 68.79 69.31 68.33 67.80 67.61 66.44 64.12 64.42 63.73 61.60 57.84 58.87 60.82 64.54 66.59 67.50 66.87 69.01 70.93 71.71 72.57 72.77
66.73 69.30 70.74 71.00 71.23 71.36 71.06 70.75 69.82 69.54 69.03 67.58 66.37 67.06 66.93 66.29 65.72 66.58 67.82 69.26 68.58 68.55 68.24 67.08 66.56 65.45 63.71 60.64 60.38 60.82 58.38 57.50 57.63 58.14 62.26 64.56 66.07 66.87 65.55 66.03 67.50 71.21 72.81
64.22 67.68 70.16 71.35 72.48 71.37 71.33 69.98 69.33 69.52 68.10 67.34 66.96 66.27 65.82 65.13 65.97 66.94 67.43 68.09 67.79 67.93 67.04 66.30 66.41 65.19 65.02 59.47 58.08 59.12 58.10 57.07 57.90 58.08 61.63 65.22 66.63 66.76 69.68 66.71 65.31 65.65 63.92
64.12 65.81 69.55 71.36 71.84 71.85 71.28 70.04 69.40 68.38 67.40 66.83 66.24 65.88 65.22 64.89 66.86 67.82 68.04 68.15 67.42 67.40 66.44 66.42 66.77 65.38 64.26 58.49 57.01 58.00 57.83 57.28 57.46 57.43 63.00 64.89 67.07 69.29 69.80 70.45 70.48 70.85 71.50
67.33 68.58 69.93 72.06 72.00 71.05 70.39 69.36 68.29 67.86 67.00 66.14 66.36 65.21 64.64 66.04 66.78 66.80 67.42 67.71 66.20 67.64 66.30 66.59 66.47 64.71 64.06 58.19 56.18 56.62 55.35 54.09 54.65 58.56 65.27 67.48 68.74 65.08 61.45 69.76 70.05 70.71 71.15
69.00 69.42 70.40 70.96 70.76 71.01 69.85 68.86 67.93 67.51 66.69 66.54 65.91 65.67 65.95 66.91 66.31 66.83 67.22 67.23 66.64 67.36 64.76 65.93 65.13 61.78 63.28 57.37 55.15 56.05 54.42 54.16 56.16 61.32 65.55 63.61 65.18 60.13 58.30 69.19 70.06 69.29 70.04
68.96 70.39 70.70 70.01 70.45 69.86 69.44 68.36 67.91 67.20 67.67 67.24 66.26 65.42 66.44 67.23 67.28 67.28 67.60 66.97 67.12 67.00 66.46 65.46 65.17 63.28 61.71 60.19 54.80 54.73 53.45 57.75 59.52 64.11 65.60 67.50 59.02 55.78 54.57 56.60 70.76 68.09 70.06
69.13 70.01 70.03 69.40 71.10 70.62 69.57 68.79 67.70 68.60 68.12 67.61 66.01 65.99 66.20 66.19 65.94 67.35 67.68 67.63 67.38 66.32 65.62 65.98 62.93 61.40 62.99 57.33 56.04 53.16 52.64 57.17 59.82 60.86 60.42 57.75 52.30 51.25 53.06 57.39 54.69 53.96 60.57
69.22 69.90 69.02 68.69 69.58 71.34 70.07 68.76 69.82 69.42 68.30 67.07 66.36 67.29 66.64 66.19 66.94 66.81 67.17 65.37 64.90 65.63 62.42 59.98 59.57 59.67 60.83 60.99 55.11 53.49 53.13 56.35 57.87 57.85 56.16 55.60 53.60 54.33 56.76 55.32 55.78 56.87 62.73
68.31 69.07 68.49 67.62 69.45 70.28 70.35 70.21 70.46 69.53 68.42 67.03 66.85 67.43 65.98 66.29 66.94 65.14 63.71 63.91 62.71 62.10 60.53 60.28 59.00 58.53 59.35 60.43 57.31 55.14 56.69 55.92 59.93 59.78 58.57 56.27 56.37 55.84 58.03 58.70 58.50 59.61 60.76
68.16 68.98 68.33 68.40 69.57 71.24 70.30 70.41 69.99 69.12 67.37 66.54 66.15 66.01 64.18 63.85 65.75 65.79 63.25 62.41 61.96 58.31 59.66 57.94 58.75 56.50 56.54 57.92 46.88 47.01 54.85 54.32 55.82 55.34 60.22 58.32 58.17 58.21 58.17 58.97 59.35 59.29 58.83
64.24 66.79 68.21 68.55 68.54 68.64 69.87 68.47 64.15 65.66 64.23 65.50 64.80 64.20 62.85 62.11 62.03 62.41 60.88 50.01 50.91 46.82 45.95 44.54 49.07 54.85 49.80 43.63 44.79 45.16 45.49 47.62 50.58 59.73 59.43 59.40 60.25 59.09 59.35 59.30 59.31 60.73 60.20

GFSMW_sfc_wetblb_147.txt.gz
Wetbulb
66.58 68.31 69.49 71.55 73.68 73.89 73.81 73.96 73.27 75.00 74.90 74.43 72.23 72.78 71.98 72.99 73.85 74.04 73.62 73.23 71.31 73.41 73.89 73.50 72.36 72.79 71.96 70.54 70.96 67.01 66.43 65.82 69.71 68.43 67.59 68.26 68.83 69.64 70.86 71.72 71.20 71.12 70.66
66.29 67.58 68.48 71.46 72.77 73.20 73.70 74.67 75.10 74.75 75.39 74.77 74.16 74.40 72.85 73.57 73.92 74.32 73.24 73.85 72.99 73.95 74.28 73.41 72.33 72.54 72.28 70.61 69.86 67.90 65.06 66.57 69.87 67.07 67.17 64.12 66.19 67.95 69.84 71.06 71.88 71.48 71.24
66.17 67.40 69.01 70.88 72.11 73.23 74.37 74.79 75.53 75.48 75.62 75.15 74.71 74.83 74.19 74.40 73.46 73.35 74.08 74.02 74.25 74.82 74.97 74.29 73.96 72.87 72.26 71.17 70.37 68.41 66.37 65.73 68.37 68.57 65.94 63.17 63.36 66.54 67.81 68.32 68.88 70.74 70.68
67.83 68.49 69.55 70.20 71.90 73.51 75.38 75.61 76.15 76.66 75.98 75.37 74.97 74.01 72.35 71.61 72.31 72.07 73.26 73.28 74.44 74.23 75.33 74.36 73.99 73.39 72.28 71.12 70.48 71.38 69.93 68.64 68.23 68.19 68.75 67.60 66.80 63.61 63.12 65.81 67.08 69.12 69.50
68.47 68.67 69.91 70.74 72.42 74.31 75.15 76.20 76.26 77.05 76.17 75.53 74.95 74.74 73.31 73.17 73.01 70.83 69.64 68.97 69.05 67.30 70.01 69.34 69.73 69.08 71.20 71.57 70.92 70.47 70.27 69.68 67.85 68.39 66.65 66.51 66.13 66.38 64.96 62.43 63.57 67.27 68.67
68.76 69.75 70.88 71.63 71.67 73.99 75.02 76.67 76.27 76.38 76.67 76.08 76.28 75.50 74.82 73.73 72.07 69.12 67.28 68.42 66.42 65.39 66.72 68.83 68.57 68.63 68.65 68.40 68.93 69.12 68.94 68.66 69.16 69.02 68.84 67.76 66.11 64.82 63.93 62.99 63.78 64.66 66.77
68.48 69.49 70.06 70.87 71.27 71.52 74.26 75.80 76.05 76.08 76.35 76.80 76.50 75.49 75.31 73.33 69.71 68.16 67.69 65.43 64.44 63.51 64.67 66.59 67.34 67.77 67.12 67.17 67.59 67.62 67.27 67.09 66.57 66.62 66.89 67.96 67.96 67.92 66.63 65.44 65.00 65.00 67.14
68.08 68.87 69.90 71.09 71.01 71.10 72.07 75.18 75.86 75.70 76.07 76.10 75.71 75.86 73.98 70.36 69.22 66.97 66.01 65.18 64.22 65.38 65.56 66.07 66.05 66.86 67.13 67.69 67.22 66.73 66.46 66.43 66.08 65.84 65.77 66.14 67.09 67.94 67.20 66.08 65.13 63.62 65.00
67.03 66.03 67.25 70.63 70.76 70.62 71.66 74.91 75.58 75.90 76.47 75.61 72.73 70.77 69.82 68.23 66.60 66.37 66.17 65.35 64.47 65.37 63.49 65.84 66.18 66.37 66.78 66.96 66.55 65.97 65.51 65.66 65.46 64.97 64.73 64.66 65.56 65.32 65.51 66.05 65.96 64.06 61.25
65.58 64.76 65.83 69.39 70.13 70.19 71.60 75.81 76.14 76.13 74.41 72.29 71.05 70.54 69.27 67.64 66.57 65.80 65.19 64.80 64.58 65.30 66.51 66.02 66.58 66.60 66.55 66.51 66.17 64.88 65.20 64.66 64.89 64.49 62.00 62.17 63.77 63.69 63.77 63.07 63.69 65.34 64.05
64.02 64.21 65.45 68.66 69.32 70.12 72.58 74.93 74.94 72.88 71.99 71.12 70.11 69.58 67.30 66.01 65.26 64.65 64.36 64.73 65.25 65.28 65.41 65.59 65.95 66.17 66.28 65.94 64.93 64.66 64.51 63.95 61.41 60.82 61.46 61.86 62.30 61.96 61.98 61.83 62.32 63.09 64.40
63.35 65.87 67.48 68.32 69.49 69.19 72.57 73.94 72.69 71.77 71.17 70.01 68.99 66.84 65.61 65.00 63.93 63.72 64.16 64.02 62.41 63.17 63.93 65.08 65.86 65.53 65.08 64.55 63.84 63.58 63.28 60.71 58.92 58.74 58.61 58.53 59.95 59.07 60.33 60.19 59.50 59.74 60.44
61.48 65.56 66.47 66.40 67.05 68.02 70.63 71.75 71.60 70.76 69.95 68.12 66.63 65.79 65.38 65.01 64.03 63.79 63.63 63.37 63.18 63.64 64.83 65.61 64.69 64.29 64.38 64.02 63.12 61.79 59.48 58.65 58.39 57.71 57.13 57.56 58.15 57.78 58.70 59.69 59.16 59.00 59.24
61.83 62.62 66.15 66.73 66.80 68.23 69.82 70.38 70.16 69.88 68.09 66.61 65.80 65.12 65.36 64.98 63.31 62.67 62.37 63.31 65.32 65.19 64.49 64.48 64.55 63.87 63.61 63.54 62.18 59.34 58.68 57.88 57.57 57.57 57.69 58.07 58.26 57.73 57.77 58.28 58.15 58.40 58.84
62.30 63.18 68.38 67.66 68.36 68.51 68.45 69.09 68.99 68.58 67.11 65.80 64.75 64.38 64.96 64.20 62.82 61.64 61.41 62.31 64.31 64.94 64.68 63.50 62.60 63.08 62.53 61.86 58.78 59.05 57.19 56.92 56.91 57.43 58.08 59.01 59.50 60.97 60.37 59.10 57.58 58.16 58.68
60.77 62.16 69.25 69.36 69.24 68.54 68.22 68.22 68.16 67.51 66.53 65.19 64.13 64.54 63.88 62.81 63.11 62.75 63.11 62.74 63.56 64.37 63.01 62.99 62.89 61.08 62.82 59.86 60.60 60.25 57.65 57.01 56.82 57.39 58.58 58.24 59.24 59.56 60.07 60.42 60.97 59.93 58.41
60.27 61.50 63.26 68.32 68.89 68.56 68.65 67.94 67.28 67.05 65.57 64.58 64.62 64.14 62.85 63.46 62.59 62.89 62.33 63.08 63.65 63.30 61.55 62.12 61.76 61.14 60.23 59.55 58.70 59.61 57.59 56.27 57.39 58.46 57.83 58.22 58.97 58.30 57.86 59.21 59.70 60.17 60.47
60.48 61.00 62.26 67.37 68.59 69.07 68.46 68.68 67.37 66.43 65.26 65.04 64.46 63.48 63.55 62.50 62.03 62.29 63.91 63.12 63.38 62.52 61.71 61.57 61.40 60.04 60.68 58.85 56.74 57.70 56.59 56.82 58.76 58.80 58.88 58.02 58.96 57.55 57.49 58.29 58.43 59.35 61.69
62.05 62.13 62.81 62.78 69.25 68.98 68.87 68.13 66.79 66.16 64.52 64.75 63.55 64.11 64.00 61.48 61.96 63.01 62.22 62.77 62.19 62.50 61.49 61.68 60.64 58.85 58.06 57.18 55.16 55.08 55.66 57.21 58.24 59.01 59.61 58.65 56.90 57.16 57.68 57.28 57.52 60.40 63.18
63.93 63.40 64.07 66.59 68.97 68.97 68.79 67.08 65.76 64.50 63.75 64.07 63.90 64.31 63.09 62.43 62.81 62.64 62.24 62.50 63.10 62.25 62.31 61.01 60.70 57.90 56.47 55.28 54.57 54.23 54.96 56.73 57.67 58.35 59.51 58.51 56.00 53.49 56.15 58.88 62.38 61.77 62.24
62.72 63.81 64.80 63.63 69.06 69.19 67.81 65.55 64.50 63.68 63.63 63.74 63.87 64.10 62.27 62.91 64.08 62.79 63.15 62.41 62.40 62.47 61.23 60.12 59.28 56.92 55.83 56.07 53.96 52.84 53.46 55.57 57.86 57.82 58.46 58.90 54.88 51.31 52.67 56.31 61.42 60.58 62.99
64.96 65.49 64.46 65.25 69.40 67.38 66.18 63.69 62.63 63.96 64.40 64.15 63.25 62.60 62.38 64.49 63.71 63.28 63.32 62.50 61.97 61.82 60.05 59.26 56.03 56.39 55.97 55.06 54.09 51.73 50.92 53.42 58.20 58.20 58.84 59.02 53.56 50.27 52.04 56.09 54.16 56.49 61.32
62.71 64.23 65.11 66.04 68.28 67.76 66.60 64.20 64.51 65.20 64.44 63.58 63.34 63.29 64.13 63.80 63.63 62.01 62.29 61.64 60.96 59.91 59.51 56.38 54.73 55.26 55.70 55.70 52.75 50.86 50.80 52.93 57.42 58.12 57.38 55.39 53.30 53.75 55.44 53.78 54.51 56.65 59.57
59.10 60.55 61.63 63.67 65.43 67.12 66.53 67.20 67.31 66.75 64.32 62.15 61.07 59.77 59.70 60.46 62.48 62.74 62.57 61.32 61.50 58.62 56.51 55.02 54.01 53.86 54.06 52.48 49.71 49.00 49.99 52.15 56.89 57.34 57.99 57.31 56.56 55.81 56.88 55.73 55.36 57.94 58.33
57.25 57.44 57.76 58.66 60.49 65.56 64.23 64.16 63.11 61.85 60.81 60.43 58.71 58.58 59.16 59.31 60.32 60.46 59.30 60.03 55.86 56.88 55.47 55.00 53.06 50.56 48.24 48.56 44.42 43.67 46.35 46.78 52.17 55.20 55.92 55.16 56.61 56.85 57.91 58.62 57.18 55.42 55.26
55.74 54.91 56.09 56.44 57.37 63.72 60.48 61.23 62.06 61.04 58.36 57.49 57.18 58.04 57.85 57.75 58.55 60.18 53.59 49.49 48.49 48.42 45.87 46.04 51.57 50.28 47.38 43.33 42.48 42.42 43.15 43.26 46.36 53.26 53.26 52.97 53.28 53.64 55.34 56.50 57.08 57.85 57.13